This demonstration page uses our WeatherBlox Daily Observations layout. Learn more.

Left ArrowRight Arrow

38.89511, -77.03637

Hourly Observations for May 5, 2018

Temp ( °F °C ) Dew Point ( °F °C ) Humidity (%) Winds ( mph kmh ) Pressure ( in mb ) Visibility ( mi km ) Precip ( " mm )
12:52 am 00:52 Clear 76 24.4 55 12.8 48 48 NNW 16 26 29.96 1015 10 16 0.00 0.00
1:52 am 01:52 Cloudy 75 23.9 54 12.2 48 48 NW 7 11 29.97 1015 10 16 0.00 0.00
2:52 am 02:52 Mostly Cloudy 73 22.8 55 12.8 53 53 NNW 12 19 30.00 1016 10 16 0.00 0.00
3:52 am 03:52 Cloudy 72 22.2 56 13.3 57 57 NNW 10 17 30.02 1017 10 16 0.00 0.00
4:38 am 04:38 Cloudy with Light Rain 70 21.1 53 11.7 55 55 N 17 28 30.03 1017 10 16 0.00 0.03
4:52 am 04:52 Cloudy 70 21.1 53 11.7 55 55 N 12 19 30.04 1017 10 16 0.00 0.03
5:17 am 05:17 Cloudy with Light Rain 70 21.1 51 10.6 51 51 N 17 28 30.03 1017 10 16 0.00 0.03
5:52 am 05:52 Cloudy 69 20.6 50 10 51 51 N 16 26 30.05 1018 10 16 0.00 0.03
6:52 am 06:52 Cloudy 69 20.6 47 8.3 45 45 N 13 20 30.08 1019 10 16 0.00 0.00
7:52 am 07:52 Cloudy 69 20.6 46 7.8 44 44 N 13 20 30.10 1019 10 16 0.00 0.00
8:52 am 08:52 Cloudy 69 20.6 44 6.7 41 41 N 13 20 30.13 1020 10 16 0.00 0.00
9:52 am 09:52 Cloudy 69 20.6 42 5.6 38 38 NNE 9 15 30.14 1021 10 16 0.00 0.00
10:52 am 10:52 Cloudy 70 21.1 45 7.2 41 41 NE 6 9 30.14 1021 10 16 0.00 0.00
11:52 am 11:52 Cloudy 71 21.7 43 6.1 36 36 NE 6 9 30.14 1021 10 16 0.00 0.03
12:52 pm 12:52 Cloudy 72 22.2 41 5 33 33 E 5 7 30.14 1021 10 16 0.00 0.00
1:52 pm 13:52 Cloudy 72 22.2 41 5 33 33 Calm 30.14 1021 10 16 0.00 0.03
2:27 pm 14:27 Cloudy with Nearby Thunderstorms 71 21.7 40 4.4 32 32 SE 3 6 30.12 1020 10 16 0.00 0.00
2:47 pm 14:47 Cloudy 72 22 41 5 33 33 ESE 8 13 30.12 1020 10 16 0.00 0.00
2:52 pm 14:52 Cloudy 72 22.2 40 4.4 31 31 ESE 7 11 30.11 1020 10 16 0.00 0.00
3:52 pm 15:52 Cloudy 71 21.7 43 6.1 36 36 SE 6 9 30.12 1020 10 16 0.00 0.00
4:52 pm 16:52 Cloudy 71 21.7 42 5.6 35 35 Calm 30.11 1020 10 16 0.00 0.03
5:52 pm 17:52 Cloudy 70 21.1 41 5 35 35 E 6 9 30.11 1020 10 16 0.00 0.00
6:52 pm 18:52 Cloudy 67 19.4 46 7.8 47 47 N 8 13 30.10 1019 10 16 0.00 0.00
7:52 pm 19:52 Cloudy 66 18.9 44 6.7 45 45 NE 6 9 30.09 1019 10 16 0.00 0.00
8:52 pm 20:52 Cloudy with Light Rain 65 18.3 47 8.3 52 52 NNE 9 15 30.11 1020 10 16 0.00 0.03
9:52 pm 21:52 Mostly Cloudy 64 17.8 49 9.4 58 58 NE 7 11 30.10 1019 10 16 0.00 0.03
10:52 pm 22:52 Cloudy 63 17.2 49 9.4 60 60 NNE 7 11 30.10 1019 10 16 0.00 0.00
11:52 pm 23:52 Cloudy 63 17.2 50 10 63 63 N 6 9 30.08 1019 10 16 0.00 0.00

Powered by AerisWeather